Meteopurmerend
purmerend
Purmerend - Baaienwijk



My webcam  My webcam


Onweer radar Meer informatie blitzortung!


waarschuwing voor winterse neerslag Meer informatie rain snow radar


Bezoek onze andere website:

CandyAppleRed WebdesignWebdesign Purmerend Candy Apple Red

MeteopurmerendBlog

Template documentation
and downloads



Sneeuw/IJzel/Bevriezing van: 28-02-2020 05:00 tot: 09:00 waarschuwing voor: Sneeuw/IJzel/Bevriezing niveau: Geel info button
Kans op lokale gladheid door bevriezing van natte weggedeelten.Kans op gladheid.Alle verkeersdeelnemers kunnen hinder ondervinden.Pas uw rijgedrag aan.Volg weerberichten en waarschuwingen.

15 daagse weersverwachting Cardiff (GB)

  • Overzicht
  • Per uur
  • 15 dagen
  • Extra
  • Vergelijk
  • Kaarten
  • Dagkaart
  • Meer »
  • Info
  • Statistieken
  • Directe link
    Temp 6h Neerslag Wind  
 07:01     17:50    Daglengte: 10:49 Vandaag
06:00
 
5
12:00
21.7 mm
6
18:00
10°
25.4 mm
7
 06:59     17:52    Daglengte: 10:53 Morgen
00:00
10°
31.7 mm
8
06:00
36.2 mm
9
12:00
28.2 mm
11
18:00
 
13
 06:56     17:54    Daglengte: 10:58 Zondag 01 Maa
00:00
27.5 mm
12
06:00
46.0 mm
8
12:00
40.2 mm
6
18:00
 
6
 06:54     17:56    Daglengte: 11:02 Maandag 02 Maa
00:00
31.3 mm
5
Locatie info
Region: Wales
Latitude: 51.4813°N
Longitude: -3.1807°E
17 masl
Postcode: CF10 1
Temp/Neerslag /Baro Onweer/Dauwpunt
    Temp Baro 1h Neerslag Dauwpunt Wind UV Bewolking  
 07:01     17:50    Daglengte: 10:49 Vandaag
06:00
Voelt als: 1.1°
1008.8 hPa
49%
2.5°
5
Windvlaag: 4.5 m/s
91%
07:00
Voelt als: 0.7°
1007.1 hPa 1.8 mm
82%
3.4°
7
Windvlaag: 5.6 m/s
91%
08:00
Voelt als: 0.3°
1005.9 hPa 2.6 mm
82%
3.5°
7
Windvlaag: 5.4 m/s
91%
09:00
Voelt als: 1.5°
1004.4 hPa 3.9 mm
82%
4.2°
6
Windvlaag: 5.8 m/s
91%
10:00
Voelt als: 3.0°
1002.5 hPa 5.5 mm
82%
5.2°
6
Windvlaag: 5.9 m/s
90%
11:00
Voelt als: 4.4°
1000.8 hPa 3.8 mm
82%
7.0°
6
Windvlaag: 5.9 m/s
91%
12:00
Voelt als: 6.4°
999.9 hPa 4.1 mm
82%
8.3°
6
Windvlaag: 5.6 m/s
91%
13:00
10°
998.6 hPa 5.2 mm
82%
9.2°
8
Windvlaag: 4.8 m/s
91%
14:00
11°
997.7 hPa 4.0 mm
82%
9.6°
9
Windvlaag: 4.7 m/s
91%
15:00
11°
997.0 hPa 4.6 mm
77%
9.3°
9
Windvlaag: 4.8 m/s
90%
16:00
11°
996.3 hPa 3.5 mm
79%
8.8°
8
Windvlaag: 4.5 m/s
90%
17:00
10°
995.4 hPa 3.8 mm
80%
8.8°
7
Windvlaag: 4.8 m/s
90%
18:00
10°
994.7 hPa 4.4 mm
80%
8.7°
7
Windvlaag: 5.1 m/s
91%
19:00
10°
993.8 hPa 4.9 mm
82%
8.8°
7
Windvlaag: 5.4 m/s
91%
20:00
10°
992.8 hPa 5.1 mm
82%
8.9°
7
Windvlaag: 5.9 m/s
91%
21:00
10°
991.7 hPa 4.5 mm
82%
9.0°
8
Windvlaag: 6.4 m/s
91%
22:00
10°
990.6 hPa 5.9 mm
75%
9.0°
8
Windvlaag: 6.6 m/s
91%
23:00
10°
989.2 hPa 6.3 mm
79%
9.0°
8
Windvlaag: 7 m/s
91%
 06:59     17:52    Daglengte: 10:53 Morgen
00:00
10°
987.5 hPa 4.8 mm
82%
8.9°
8
Windvlaag: 7.1 m/s
91%
01:00
10°
985.9 hPa 4.9 mm
82%
8.8°
9
Windvlaag: 6.9 m/s
91%
02:00
10°
983.8 hPa 6.7 mm
82%
8.6°
9
Windvlaag: 7.6 m/s
90%
03:00
10°
Voelt als: 5.8°
981.8 hPa 5.6 mm
82%
8.0°
9
Windvlaag: 8.7 m/s
91%
04:00
Voelt als: 3.7°
980.8 hPa 6.9 mm
82%
6.2°
10
Windvlaag: 8.2 m/s
91%
05:00
Voelt als: 2.0°
981.9 hPa 6.7 mm
82%
4.1°
9
Windvlaag: 10.1 m/s
91%
06:00
Voelt als: 1.3°
982.7 hPa 5.5 mm
82%
3.0°
9
Windvlaag: 3.6 m/s
90%
07:00
Voelt als: 0.8°
983.0 hPa 7.1 mm
15%
2.6°
8
Windvlaag: 0.9 m/s
80%
08:00
Voelt als: 0.6°
983.3 hPa 7.1 mm
17%
1.2°
8
Windvlaag: 3.2 m/s
59%
09:00
Voelt als: 0.2°
983.8 hPa 7.1 mm
64%
1.1°
10
Windvlaag: 2.2 m/s
28%
10:00
Voelt als: 0.2°
984.0 hPa 7.1 mm
77%
0.5°
10
Windvlaag: 3.2 m/s
33%
11:00
Voelt als: 0.2°
984.0 hPa
76%
0.4°
11
Windvlaag: 4.4 m/s
17%
12:00
Voelt als: 0.1°
984.2 hPa
42%
1.8°
11
Windvlaag: 4.7 m/s
25%
13:00
Voelt als: 0.6°
983.9 hPa
76%
1.7°
11
Windvlaag: 5.3 m/s
55%
14:00
Voelt als: 0.2°
983.4 hPa
82%
-0.1°
12
Windvlaag: 5.4 m/s
76%
15:00
Voelt als: 0.7°
983.3 hPa
80%
-0.6°
13
Windvlaag: 6.3 m/s
39%
16:00
Voelt als: 0.5°
983.3 hPa
74%
0.1°
13
Windvlaag: 6.9 m/s
40%
17:00
Voelt als: 0.5°
983.3 hPa
42%
0.2°
13
Windvlaag: 6.7 m/s
51%
18:00
Voelt als: 0.1°
983.7 hPa
34%
0.7°
13
Windvlaag: 6.3 m/s
23%
19:00
Voelt als: 0.1°
984.0 hPa
61%
0.9°
12
Windvlaag: 7 m/s
30%
20:00
Voelt als: 0.3°
984.2 hPa
34%
1.0°
12
Windvlaag: 5.7 m/s
37%
21:00
Voelt als: -0.2°
984.6 hPa 7.2 mm
74%
1.0°
12
Windvlaag: 5.1 m/s
44%
22:00
Voelt als: 0.3°
984.9 hPa 7.4 mm
76%
0.4°
12
Windvlaag: 5 m/s
42%
23:00
Voelt als: -0.5°
985.4 hPa 7.4 mm
77%
1.2°
12
Windvlaag: 5.5 m/s
45%
 06:56     17:54    Daglengte: 10:58 Zondag 01 Maa
00:00
Voelt als: -0.2°
985.5 hPa 5.4 mm
78%
0.2°
12
Windvlaag: 5.5 m/s
60%
01:00
Voelt als: -0.5°
985.7 hPa 7.8 mm
76%
1.8°
12
Windvlaag: 5.8 m/s
50%
02:00
Voelt als: -0.5°
985.7 hPa 5.7 mm
76%
2.2°
12
Windvlaag: 5.9 m/s
66%
03:00
Voelt als: -0.1°
987.2 hPa 7.8 mm
88%
2.4°
10
Windvlaag: 5.7 m/s
76%
04:00
Voelt als: -0.8°
987.3 hPa 7.9 mm
90%
2.6°
10
Windvlaag: 5.6 m/s
74%
05:00
Voelt als: -0.6°
987.3 hPa 8.3 mm
93%
3.0°
9
Windvlaag: 5.3 m/s
80%
06:00
Voelt als: -0.1°
987.1 hPa 8.4 mm
90%
3.1°
8
Windvlaag: 5.3 m/s
74%
07:00
Voelt als: 0.4°
986.7 hPa 8.4 mm
85%
3.0°
7
Windvlaag: 5 m/s
55%
08:00
Voelt als: 0.7°
986.4 hPa 6.1 mm
93%
3.4°
7
Windvlaag: 4.9 m/s
75%
09:00
Voelt als: 1.6°
985.9 hPa 8.4 mm
97%
3.8°
6
Windvlaag: 4.3 m/s
52%
10:00
Voelt als: 1.4°
985.6 hPa 8.6 mm
98%
3.7°
6
Windvlaag: 4.6 m/s
67%
11:00
Voelt als: 2.0°
985.2 hPa 8.8 mm
100%
3.2°
6
Windvlaag: 2.5 m/s
68%
12:00
Voelt als: 2.5°
985.1 hPa
97%
2.9°
6
Windvlaag: 2.7 m/s
52%
13:00
Voelt als: 2.8°
984.8 hPa
85%
2.1°
7
Windvlaag: 2.7 m/s
37%
14:00
Voelt als: 3.4°
984.4 hPa
32%
0.3°
7
Windvlaag: 2.7 m/s
32%
15:00
Voelt als: 3.3°
984.8 hPa
77%
-0.6°
8
Windvlaag: 3 m/s
7%
16:00
Voelt als: 2.6°
985.0 hPa
78%
-0.4°
8
Windvlaag: 3.2 m/s
20%
17:00
Voelt als: 1.8°
985.5 hPa
86%
0.1°
7
Windvlaag: 3.8 m/s
18%
18:00
Voelt als: 1.2°
986.0 hPa
44%
0.2°
6
Windvlaag: 3.5 m/s
28%
19:00
Voelt als: 1.0°
986.7 hPa 15.7 mm
42%
0.4°
6
Windvlaag: 5.6 m/s
37%
20:00
Voelt als: 0.9°
987.4 hPa 15.6 mm
45%
0.7°
6
Windvlaag: 4.8 m/s
62%
21:00
Voelt als: 0.7°
988.1 hPa
45%
1.1°
6
Windvlaag: 3.9 m/s
45%
22:00
Voelt als: 0.6°
988.6 hPa
46%
1.5°
6
Windvlaag: 4.1 m/s
50%
23:00
Voelt als: 0.3°
988.9 hPa
45%
1.9°
6
Windvlaag: 4.9 m/s
55%
 06:54     17:56    Daglengte: 11:02 Maandag 02 Maa
00:00
Voelt als: 0.1°
989.2 hPa
45%
2.1°
5
Windvlaag: 2.3 m/s
47%
01:00
Voelt als: -0.1°
990.1 hPa
43%
1.7°
5
Windvlaag: 10.5 m/s
40%
02:00
Voelt als: 0.1°
990.3 hPa
87%
1.8°
4
Windvlaag: 9.6 m/s
49%
03:00
Voelt als: 0.4°
990.4 hPa
89%
1.9°
4
Windvlaag: 8.2 m/s
51%
04:00
Voelt als: 0.8°
990.5 hPa
87%
1.8°
4
Windvlaag: 8.5 m/s
42%
05:00
Voelt als: 0.4°
990.7 hPa
87%
1.5°
3
Windvlaag: 8.6 m/s
46%
Temp/Neerslag /Baro Onweer/Dauwpunt
    Temp Baro Neerslag Dauwpunt Wind Bewolking  
 07:01     17:50    Daglengte: 10:49 Vandaag
06:00
Voelt als: 1.1°
1008.8 hPa   2.5°
5
91%
09:00
Voelt als: 1.5°
1004.4 hPa 8.3 mm 4.2°
6
91%
12:00
Voelt als: 6.4°
999.9 hPa 13.5 mm 8.3°
6
91%
15:00
11°
997.0 hPa 13.8 mm 9.3°
9
90%
18:00
10°
994.7 hPa 11.7 mm 8.7°
7
91%
21:00
10°
991.7 hPa 14.6 mm 9.0°
8
91%
 06:59     17:52    Daglengte: 10:53 Morgen
00:00
10°
987.5 hPa 17.0 mm 8.9°
8
91%
03:00
10°
Voelt als: 5.8°
981.8 hPa 17.1 mm 8.0°
9
91%
06:00
Voelt als: 1.3°
982.7 hPa 19.1 mm 3.0°
9
90%
09:00
Voelt als: 0.2°
983.8 hPa 21.2 mm 1.1°
10
28%
12:00
Voelt als: 0.1°
984.2 hPa 7.1 mm 1.8°
11
25%
15:00
Voelt als: 0.7°
983.3 hPa   -0.6°
13
39%
18:00
Voelt als: 0.1°
983.7 hPa   0.7°
13
23%
21:00
Voelt als: -0.2°
984.6 hPa 7.2 mm 1.0°
12
44%
 06:56     17:54    Daglengte: 10:58 Zondag 01 Maa
00:00
Voelt als: -0.2°
985.5 hPa 20.3 mm 0.2°
12
60%
03:00
Voelt als: -0.1°
987.2 hPa 21.3 mm 2.4°
10
76%
06:00
Voelt als: -0.1°
987.1 hPa 24.7 mm 3.1°
8
74%
09:00
Voelt als: 1.6°
985.9 hPa 22.8 mm 3.8°
6
52%
12:00
Voelt als: 2.5°
985.1 hPa 17.4 mm 2.9°
6
52%
15:00
Voelt als: 3.3°
984.8 hPa   -0.6°
8
7%
18:00
Voelt als: 1.2°
986.0 hPa   0.2°
6
28%
21:00
Voelt als: 0.7°
988.1 hPa 31.3 mm 1.1°
6
45%
 06:54     17:56    Daglengte: 11:02 Maandag 02 Maa
00:00
Voelt als: 0.1°
989.2 hPa   2.1°
5
47%
03:00
Voelt als: 0.4°
990.4 hPa   1.9°
4
51%
06:00
Voelt als: 0.6°
991.0 hPa   1.5°
3
34%
09:00
Voelt als: 2.9°
993.7 hPa 36.8 mm 0.6°
4
25%
12:00
Voelt als: 4.2°
995.0 hPa 36.9 mm -0.3°
5
24%
15:00
Voelt als: 3.0°
997.1 hPa 37.5 mm -0.7°
4
12%
18:00
Voelt als: 1.7°
999.5 hPa 37.5 mm -1.4°
4
0%
21:00
Voelt als: 0.3°
1002.0 hPa 37.7 mm -1.1°
4
0%
 06:52     17:57    Daglengte: 11:05 Dinsdag 03 Maa
00:00
Voelt als: -1.1°
1004.4 hPa 37.8 mm -0.9°
4
1%
03:00
Voelt als: -1.6°
1006.6 hPa 38.0 mm -0.8°
3
1%
06:00
Voelt als: -2.1°
1008.7 hPa 38.1 mm -0.7°
3
1%
09:00
Voelt als: 1.0°
1009.4 hPa 38.3 mm -0.1°
4
46%
12:00
Voelt als: 4.3°
1010.1 hPa 38.5 mm -0.1°
5
92%
15:00
Voelt als: 3.5°
1007.7 hPa 38.7 mm 0.9°
5
92%
18:00
Voelt als: 2.5°
1005.4 hPa 38.9 mm 1.7°
5
92%
21:00
Voelt als: 2.2°
1001.6 hPa 38.9 mm 2.9°
5
92%
 06:50     17:59    Daglengte: 11:09 Woensdag 04 Maa
00:00
Voelt als: 2.0°
997.6 hPa 38.9 mm 3.9°
5
92%
03:00
Voelt als: 2.5°
995.1 hPa 38.9 mm 4.9°
7
88%
06:00
Voelt als: 3.4°
992.4 hPa 38.9 mm 6.1°
9
84%
09:00
Voelt als: 3.1°
994.2 hPa 38.9 mm 4.7°
10
63%
12:00
Voelt als: 2.8°
995.7 hPa 40.2 mm 3.3°
12
43%
15:00
Voelt als: 2.6°
996.8 hPa 45.1 mm 2.2°
10
35%
18:00
Voelt als: 3.1°
998.0 hPa 48.5 mm 1.3°
7
27%
21:00
Voelt als: 1.4°
1000.6 hPa 49.8 mm 0.2°
7
15%
 06:48     18:01    Daglengte: 11:13 Donderdag 05 Maa
00:00
Voelt als: -0.2°
1003.3 hPa 52.4 mm -0.8°
6
4%
03:00
Voelt als: -0.1°
1004.0 hPa 52.9 mm -0.2°
6
3%
06:00
Voelt als: -0.1°
1005.0 hPa 53.4 mm 0.4°
5
2%
09:00
Voelt als: 1.9°
1006.4 hPa 54.6 mm 0.4°
6
19%
12:00
Voelt als: 3.9°
1007.9 hPa 54.7 mm -0.0°
8
36%
15:00
Voelt als: 3.3°
1008.6 hPa 54.8 mm 1.3°
7
22%
18:00
Voelt als: 2.7°
1009.1 hPa 54.8 mm 2.3°
5
7%
21:00
Voelt als: 2.6°
1008.6 hPa 54.8 mm 3.0°
5
48%
 06:45     18:03    Daglengte: 11:18 Vrijdag 06 Maa
00:00
Voelt als: 2.3°
1008.0 hPa 55.4 mm 4.0°
6
88%
03:00
Voelt als: 2.3°
1006.2 hPa   3.7°
7
90%
06:00
Voelt als: 2.4°
1004.5 hPa 111.3 mm 3.4°
7
92%
12:00
Voelt als: 5.3°
1003.6 hPa 113.0 mm 4.5°
8
92%
18:00
Voelt als: 3.9°
1002.1 hPa 116.4 mm 3.9°
8
92%
 06:43     18:04    Daglengte: 11:21 Zaterdag 07 Maa
00:00
Voelt als: 0.3°
1005.8 hPa 117.3 mm 2.3°
4
92%
06:00
Voelt als: 0.1°
1009.1 hPa 117.3 mm 1.2°
3
22%
12:00
Voelt als: 5.2°
1013.8 hPa 117.3 mm 0.2°
5
37%
18:00
Voelt als: 3.7°
1018.5 hPa 117.3 mm -0.3°
3
0%
 06:41     18:06    Daglengte: 11:25 Zondag 08 Maa
00:00
Voelt als: -0.5°
1023.4 hPa 117.3 mm -0.0°
3
0%
06:00
Voelt als: -1.0°
1025.9 hPa 117.3 mm 0.5°
3
18%
12:00
Voelt als: 6.8°
1030.8 hPa 117.3 mm 5.0°
5
0%
18:00
Voelt als: 4.9°
1029.9 hPa 117.3 mm 5.5°
4
1%
 06:39     18:08    Daglengte: 11:29 Maandag 09 Maa
00:00
Voelt als: 2.3°
1017.4 hPa 0.4 mm 3.5°
4
51%
06:00
Voelt als: 1.8°
1018.1 hPa 0.5 mm 3.1°
4
59%
12:00
10°
Voelt als: 7.3°
1019.8 hPa 0.2 mm 5.2°
5
56%
18:00
Voelt als: 5.3°
1019.7 hPa 0.6 mm 4.5°
3
64%
 06:37     18:10    Daglengte: 11:33 Dinsdag 10 Maa
00:00
Voelt als: 2.7°
1020.6 hPa 0.5 mm 3.3°
3
51%
06:00
Voelt als: 2.3°
1019.8 hPa 0.6 mm 2.8°
3
46%
12:00
10°
Voelt als: 7.7°
1020.6 hPa 0.7 mm 4.6°
3
53%
18:00
Voelt als: 6.0°
1020.0 hPa 0.7 mm 3.9°
3
50%
 06:34     18:11    Daglengte: 11:37 Woensdag 11 Maa
00:00
Voelt als: 2.7°
1020.9 hPa 0.6 mm 2.3°
2
35%
06:00
Voelt als: 1.9°
1020.7 hPa 0.3 mm 1.4°
1
29%
12:00
Voelt als: 7.9°
1020.9 hPa 0.1 mm 3.3°
3
35%
18:00
Voelt als: 6.0°
1019.7 hPa 0.4 mm 3.9°
2
50%
 06:32     18:13    Daglengte: 11:41 Donderdag 12 Maa
00:00
Voelt als: 3.3°
1020.9 hPa 0.1 mm 2.0°
1
38%
06:00
Voelt als: 2.6°
1020.4 hPa 0.5 mm 1.3°
1
34%
12:00
Voelt als: 8.9°
1021.7 hPa 0.3 mm 2.8°
1
40%
18:00
Voelt als: 6.9°
1021.0 hPa 0.4 mm 2.8°
1
47%
 06:30     18:15    Daglengte: 11:45 Vrijdag 13 Maa
00:00
Voelt als: 3.6°
1022.3 hPa 0.2 mm 1.9°
1
33%
06:00
Voelt als: 2.8°
1021.1 hPa 0.8 mm 2.2°
1
44%
12:00
Voelt als: 9.0°
1022.0 hPa 0.2 mm 4.1°
2
45%
18:00
Voelt als: 7.3°
1020.4 hPa 0.5 mm 4.1°
1
51%
 06:27     18:16    Daglengte: 11:49 Zaterdag 14 Maa
00:00
Voelt als: 3.9°
1020.7 hPa 0.2 mm 2.6°
1
44%
  CAPE Lifted Index Hail Supercell Tornado SRH 3km CL BTM PRES CL TOP PRES Swiss DWD icon SMHI TS
 07:01     17:50    Daglengte: 10:49 Vandaag
06:00 7 J/kg 12.2 K 0 % 0 % 0 % 0 m²/s² 0 0 12.5 61
07:00 8 J/kg 9.5 K 0 % 0 % 0 % 0 m²/s² 0 0 9.95 61
08:00 1 J/kg 6.2 K 0 % 0 % 0 % 0 m²/s² 0 0 6.53 61
09:00 0 J/kg 4.9 K 0 % 0 % 0 % 0 m²/s² 0 0 5.14 63
10:00 0 J/kg 3.2 K 0 % 0 % 0 % 0 m²/s² 0 0 3.5 63
11:00 0 J/kg 2.4 K 0 % 0 % 0 % 0 m²/s² 0 0 2.76 61
12:00 0 J/kg 1.5 K 0 % 0 % 0 % 0 m²/s² 0 0 1.68 55
13:00 0 J/kg 1.4 K 0 % 0 % 0 % 0 m²/s² 0 0 1.7 61
14:00 1 J/kg 1.9 K 0 % 0 % 0 % 0 m²/s² 0 0 2.44 61
15:00 3 J/kg 3.4 K 0 % 0 % 0 % 0 m²/s² 0 0 3.91 61
16:00 2 J/kg 5.3 K 0 % 0 % 0 % 0 m²/s² 0 0 5.66 61
17:00 0 J/kg 3.4 K 0 % 0 % 0 % 0 m²/s² 0 0 3.64 80
18:00 0 J/kg 3.0 K 0 % 0 % 0 % 0 m²/s² 0 0 3.18 61
19:00 0 J/kg 2.7 K 0 % 0 % 0 % 0 m²/s² 0 0 2.91 61
20:00 0 J/kg 2.0 K 0 % 0 % 0 % 0 m²/s² 0 0 2.21 61
21:00 0 J/kg 1.7 K 0 % 0 % 0 % 0 m²/s² 0 0 2.06 61
22:00 0 J/kg 1.9 K 0 % 0 % 0 % 0 m²/s² 0 0 2.89 3
23:00 0 J/kg 2.6 K 0 % 0 % 0 % 0 m²/s² 0 0 3.5 3
 06:59     17:52    Daglengte: 10:53 Morgen
00:00 0 J/kg 3.0 K 0 % 0 % 0 % 0 m²/s² 0 0 3.51 61
01:00 0 J/kg 3.4 K 0 % 0 % 0 % 0 m²/s² 0 0 3.61 61
02:00 0 J/kg 3.5 K 0 % 0 % 0 % 0 m²/s² 0 0 3.59 61
03:00 0 J/kg 2.9 K 0 % 0 % 0 % 0 m²/s² 0 0 3.14 61
04:00 13 J/kg 6.1 K 0 % 0 % 0 % 0 m²/s² 0 0 6.37 63
05:00 26 J/kg 7.9 K 0 % 0 % 0 % 0 m²/s² 0 0 8.26 61
06:00 23 J/kg 8.7 K 0 % 0 % 0 % 0 m²/s² 0 0 9.27 61
07:00 47 J/kg 7.3 K 0 % 0 % 0 % 0 m²/s² 0 0 9.1 2
08:00 0 J/kg 8.3 K 0 % 0 % 0 % 0 m²/s² 0 0 10.76 2
09:00 160 J/kg 6.1 K 0 % 0 % 0 % 0 m²/s² 0 0 8.62 2
10:00 135 J/kg 3.6 K 0 % 0 % 0 % 0 m²/s² 0 0 6.03 2
11:00 16 J/kg 3.2 K 0 % 0 % 0 % 0 m²/s² 0 0 4.22 2
12:00 108 J/kg 2.3 K 0 % 0 % 0 % 0 m²/s² 0 0 2.99 2
13:00 125 J/kg 1.4 K 0 % 0 % 0 % 0 m²/s² 0 0 3.02 3
14:00 139 J/kg 1.4 K 0 % 0 % 0 % 0 m²/s² 0 0 2.24 61
15:00 147 J/kg 1.5 K 0 % 0 % 0 % 0 m²/s² 0 0 2.22 2
16:00 107 J/kg 1.8 K 0 % 0 % 0 % 0 m²/s² 0 0 2.73 2
17:00 150 J/kg 2.2 K 0 % 0 % 0 % 0 m²/s² 0 0 3.28 2
18:00 115 J/kg 2.5 K 0 % 0 % 0 % 0 m²/s² 0 0 4.3 2
19:00 112 J/kg 3.2 K 0 % 0 % 0 % 0 m²/s² 0 0 5.18 3
20:00 120 J/kg 3.9 K 0 % 0 % 0 % 0 m²/s² 0 0 7.05 3
21:00 49 J/kg 3.6 K 0 % 0 % 0 % 0 m²/s² 0 0 4.65 3
22:00 150 J/kg 3.4 K 0 % 0 % 0 % 0 m²/s² 0 0 4.09 80
23:00 126 J/kg 3.7 K 0 % 0 % 0 % 0 m²/s² 0 0 4.39 80
 06:56     17:54    Daglengte: 10:58 Zondag 01 Maa
00:00 193 J/kg 2.5 K 0 % 0 % 0 % 0 m²/s² 0 0 3.7 80
01:00 150 J/kg 2.5 K 0 % 0 % 0 % 0 m²/s² 0 0 3.34 80
02:00 163 J/kg 2.7 K 0 % 0 % 0 % 0 m²/s² 0 0 3.48 2
03:00 190 J/kg 2.8 K 0 % 0 % 0 % 0 m²/s² 0 0 4.42 3
04:00 39 J/kg 2.7 K 0 % 0 % 0 % 0 m²/s² 0 0 3.06 3
05:00 0 J/kg 2.7 K 0 % 0 % 0 % 0 m²/s² 0 0 3.81 2
06:00 215 J/kg 2.7 K 0 % 0 % 0 % 0 m²/s² 0 0 4.53 2
07:00 147 J/kg 2.9 K 0 % 0 % 0 % 0 m²/s² 0 0 4.91 2
08:00 133 J/kg 1.9 K 0 % 0 % 0 % 0 m²/s² 0 0 2.53 2
09:00 215 J/kg 1.2 K 0 % 0 % 0 % 0 m²/s² 0 0 2.61 2
10:00 150 J/kg 1.6 K 0 % 0 % 0 % 0 m²/s² 0 0 2.92 2
11:00 60 J/kg 1.8 K 0 % 0 % 0 % 0 m²/s² 0 0 3.48 80
12:00 78 J/kg 2.5 K 0 % 0 % 0 % 0 m²/s² 0 0 3.43 2
13:00 2 J/kg 3.9 K 0 % 0 % 0 % 0 m²/s² 0 0 5.64 2
14:00 149 J/kg 2.9 K 0 % 0 % 0 % 0 m²/s² 0 0 3.89 2
15:00 88 J/kg 4.1 K 0 % 0 % 0 % 0 m²/s² 0 0 5.45 2
16:00 130 J/kg 4.5 K 0 % 0 % 0 % 0 m²/s² 0 0 5.76 2
17:00 125 J/kg 5.3 K 0 % 0 % 0 % 0 m²/s² 0 0 6.08 1
18:00 148 J/kg 4.3 K 0 % 0 % 0 % 0 m²/s² 0 0 6.1 3
19:00 128 J/kg 4.4 K 0 % 0 % 0 % 0 m²/s² 0 0 6.68 3
20:00 138 J/kg 4.4 K 0 % 0 % 0 % 0 m²/s² 0 0 7.82 3
21:00 132 J/kg 4.4 K 0 % 0 % 0 % 0 m²/s² 0 0 6.02 3
22:00 122 J/kg 4.4 K 0 % 0 % 0 % 0 m²/s² 0 0 5.72 3
23:00 31 J/kg 5.2 K 0 % 0 % 0 % 0 m²/s² 0 0 5.98 3
 06:54     17:56    Daglengte: 11:02 Maandag 02 Maa
00:00 129 J/kg 3.7 K 0 % 0 % 0 % 0 m²/s² 0 0 4.72 2
01:00 49 J/kg 4.7 K 0 % 0 % 0 % 0 m²/s² 0 0 7.94 2
02:00 80 J/kg 4.0 K 0 % 0 % 0 % 0 m²/s² 0 0 4.81 2
03:00 136 J/kg 3.8 K 0 % 0 % 0 % 0 m²/s² 0 0 4.52 2
04:00 105 J/kg 4.1 K 0 % 0 % 0 % 0 m²/s² 0 0 5.03 2
05:00 94 J/kg 4.8 K 0 % 0 % 0 % 0 m²/s² 0 0 6.51 2
Temp Baro Wind Neerslag
  EWN Forecast EWN WRFDA DWD ICON FMI HIRLAM MET Norway GFS
 07:01     17:50    Daglengte: 10:49 Vandaag
06:00 4.9° 1008.8 hPa 5.1 m/s 0.0 mm 5.1° 1006.4 hPa 5.7 m/s 1.9 mm 4.8° 1009.3 hPa 3.3 m/s -1.0 mm 5.1° 1009.0 hPa 6.0 m/s 0.0 mm 5.1° 1008.4 hPa 5.2 m/s 5.0° 1008.0 hPa 7.8 m/s
09:00 5.6° 1004.4 hPa 6.4 m/s 8.3 mm 5.6° 1001.3 hPa 8.1 m/s 19.0 mm 6.0° 1004.5 hPa 4.8 m/s 6.0 mm 6.5° 1004.8 hPa 9.2 m/s 0.0 mm 5.4° 1004.7 hPa 5.0 m/s 6.0° 1002.3 hPa 8.7 m/s
12:00 9.2° 999.9 hPa 5.6 m/s 13.5 mm 10.2° 998.0 hPa 8.8 m/s 48.3 mm 9.0° 1000.0 hPa 3.7 m/s 7.9 mm 9.3° 1000.3 hPa 6.5 m/s 0.0 mm 9.5° 1000.0 hPa 5.4 m/s 10.0° 999.4 hPa 7.9 m/s
15:00 10.7° 997.0 hPa 9.1 m/s 13.8 mm 10.3° 996.0 hPa 10.6 m/s 65.9 mm 11.4° 996.8 hPa 6.8 m/s 4.4 mm 11.1° 997.3 hPa 11.8 m/s 0.0 mm 10.6° 997.4 hPa 8.9 m/s 11.0° 996.9 hPa 10.9 m/s
18:00 10.1° 994.7 hPa 7.0 m/s 11.7 mm 10.0° 993.2 hPa 9.3 m/s 68.0 mm 10.6° 994.7 hPa 5.9 m/s 1.7 mm 10.9° 994.3 hPa 7.5 m/s 0.0 mm 10.0° 994.9 hPa 7.0 m/s 10.0° 994.5 hPa 8.8 m/s
21:00 10.3° 991.7 hPa 7.7 m/s 14.6 mm 10.0° 989.5 hPa 9.7 m/s 80.0 mm 10.5° 991.9 hPa 6.2 m/s 4.4 mm 10.7° 991.0 hPa 8.3 m/s 0.0 mm 10.3° 991.9 hPa 7.6 m/s 10.4° 990.7 hPa 10.9 m/s
 06:59     17:52    Daglengte: 10:53 Morgen
00:00 10.2° 987.5 hPa 8.4 m/s 17.0 mm 9.9° 985.7 hPa 10.7 m/s 82.9 mm 10.3° 987.4 hPa 6.5 m/s 0.5 mm 10.9° 985.6 hPa 11.4 m/s 0.0 mm 10.1° 988.2 hPa 8.2 m/s 10.4° 985.9 hPa 11.8 m/s
03:00 9.6° 981.8 hPa 9.4 m/s 17.1 mm 9.7° 978.5 hPa 10.7 m/s 86.5 mm 10.1° 982.1 hPa 7.3 m/s 3.8 mm 7.5° 981.6 hPa 12.1 m/s 0.0 mm 9.8° 982.0 hPa 8.6 m/s 10.0° 980.9 hPa 12.1 m/s
06:00 6.0° 982.7 hPa 8.5 m/s 19.1 mm 6.4° 979.8 hPa 8.8 m/s 101.7 mm 6.7° 983.8 hPa 6.5 m/s 4.5 mm 6.0° 983.7 hPa 9.0 m/s 0.0 mm 5.6° 982.8 hPa 8.4 m/s 6.2° 981.8 hPa 9.9 m/s
09:00 5.4° 983.8 hPa 9.6 m/s 21.2 mm 5.6° 980.8 hPa 9.5 m/s 103.4 mm 5.8° 985.3 hPa 9.0 m/s 0.0 mm 5.3° 984.4 hPa 9.7 m/s 0.0 mm 4.6° 983.9 hPa 10.0 m/s 4.8° 983.5 hPa 9.7 m/s
12:00 5.6° 984.2 hPa 11.2 m/s 7.1 mm 4.6° 982.2 hPa 11.5 m/s 104.3 mm 6.5° 985.3 hPa 10.0 m/s 0.2 mm 5.7° 983.8 hPa 12.1 m/s 0.0 mm 4.4° 984.2 hPa 11.4 m/s 5.7° 984.5 hPa 13.7 m/s
15:00 6.3° 983.3 hPa 12.8 m/s 0.0 mm 6.6° 980.8 hPa 15.0 m/s 105.3 mm 6.5° 985.6 hPa 11.2 m/s 0.1 mm 6.0° 982.1 hPa 12.9 m/s 0.0 mm 6.2° 983.3 hPa 13.6 m/s 6.3° 983.4 hPa 15.1 m/s
18:00 5.9° 983.7 hPa 12.9 m/s 0.0 mm 5.8° 981.5 hPa 14.5 m/s 106.3 mm 5.0° 987.6 hPa 8.5 m/s 0.0 mm 5.7° 980.3 hPa 14.7 m/s 0.0 mm 6.4° 984.3 hPa 13.4 m/s 5.6° 984.4 hPa 13.4 m/s
21:00 5.6° 984.6 hPa 12.2 m/s 7.2 mm 5.5° 981.4 hPa 13.2 m/s 106.9 mm 3.9° 988.5 hPa 7.8 m/s 0.2 mm 6.7° 979.1 hPa 16.8 m/s 0.0 mm 5.5° 986.6 hPa 11.8 m/s 5.4° 984.3 hPa 12.7 m/s
 06:56     17:54    Daglengte: 10:58 Zondag 01 Maa
00:00 5.6° 985.5 hPa 12.4 m/s 20.3 mm 5.3° 983.0 hPa 12.1 m/s 108.6 mm 4.3° 988.8 hPa 7.9 m/s 1.1 mm 6.8° 979.5 hPa 17.4 m/s 0.0 mm 5.5° 987.3 hPa 12.5 m/s 5.3° 985.2 hPa 13.3 m/s
03:00 5.3° 987.2 hPa 10.1 m/s 21.3 mm 5.6° 983.2 hPa 12.7 m/s 112.8 mm 4.7° 989.1 hPa 8.3 m/s 0.5 mm 5.1° 987.9 hPa 9.9 m/s 5.3° 985.9 hPa 11.7 m/s
06:00 4.8° 987.1 hPa 7.9 m/s 24.7 mm 4.4° 983.5 hPa 6.9 m/s 118.2 mm 4.8° 988.5 hPa 7.3 m/s 0.2 mm 4.6° 987.7 hPa 7.9 m/s 4.9° 986.1 hPa 10.2 m/s
09:00 5.7° 985.9 hPa 6.4 m/s 22.8 mm 5.7° 983.3 hPa 10.0 m/s 121.6 mm 5.8° 988.6 hPa 6.7 m/s 0.4 mm 5.2° 986.1 hPa 4.8 m/s 5.6° 986.5 hPa 9.5 m/s
12:00 6.3° 985.1 hPa 6.3 m/s 17.4 mm 4.8° 984.8 hPa 8.2 m/s 129.3 mm 6.9° 988.5 hPa 6.2 m/s 0.5 mm 6.1° 984.7 hPa 4.4 m/s 6.6° 987.5 hPa 11.0 m/s
15:00 7.3° 984.8 hPa 7.6 m/s 0.0 mm 5.8° 984.9 hPa 12.6 m/s 138.0 mm 7.0° 987.6 hPa 6.8 m/s 0.1 mm 7.4° 984.1 hPa 6.7 m/s 6.6° 987.3 hPa 10.5 m/s
18:00 5.4° 986.0 hPa 6.5 m/s 0.0 mm 4.7° 984.9 hPa 6.6 m/s 138.9 mm 5.0° 988.2 hPa 5.4 m/s 0.0 mm 5.4° 985.8 hPa 6.3 m/s 5.0° 987.5 hPa 8.3 m/s
21:00 4.8° 988.1 hPa 6.0 m/s 31.3 mm 5.3° 985.9 hPa 7.0 m/s 139.6 mm 4.7° 988.7 hPa 5.4 m/s 0.0 mm 4.6° 988.4 hPa 5.8 m/s 4.4° 988.7 hPa 6.8 m/s
 06:54     17:56    Daglengte: 11:02 Maandag 02 Maa
00:00 4.0° 989.2 hPa 5.2 m/s 0.0 mm 4.5° 986.2 hPa 6.5 m/s 141.2 mm 4.5° 989.5 hPa 4.7 m/s 0.0 mm 3.7° 991.0 hPa 5.3 m/s 4.5° 989.4 hPa 5.6 m/s
03:00 3.8° 990.4 hPa 4.0 m/s 0.0 mm 4.0° 986.2 hPa 3.4 m/s 142.8 mm 4.4° 990.4 hPa 4.7 m/s 0.1 mm 3.5° 991.2 hPa 3.9 m/s 4.0° 989.5 hPa 4.1 m/s
06:00 3.5° 991.0 hPa 3.1 m/s 0.0 mm 3.3° 986.9 hPa 3.7 m/s 143.4 mm 4.4° 991.3 hPa 4.0 m/s 0.1 mm 3.3° 991.5 hPa 2.5 m/s 3.2° 990.3 hPa 3.8 m/s
09:00 5.8° 993.7 hPa 3.8 m/s 36.8 mm 5.9° 993.9 hPa 3.7 m/s 4.7° 991.9 hPa 5.3 m/s 36.8 mm
12:00 7.1° 995.0 hPa 4.6 m/s 36.9 mm 7.2° 995.1 hPa 4.3 m/s 6.4° 993.4 hPa 7.7 m/s 36.9 mm
15:00 6.0° 997.1 hPa 4.3 m/s 37.5 mm 6.0° 997.4 hPa 4.0 m/s 6.4° 994.3 hPa 8.2 m/s 37.5 mm
18:00 4.7° 999.5 hPa 3.8 m/s 37.5 mm 4.8° 999.7 hPa 3.6 m/s 4.2° 996.8 hPa 6.2 m/s 37.5 mm
21:00 3.6° 1002.0 hPa 3.8 m/s 37.7 mm 3.6° 1002.3 hPa 3.6 m/s 3.8° 998.8 hPa 5.4 m/s 37.7 mm
 06:52     17:57    Daglengte: 11:05 Dinsdag 03 Maa
00:00 2.4° 1004.4 hPa 3.7 m/s 37.8 mm 2.4° 1004.9 hPa 3.6 m/s 2.8° 999.3 hPa 5.1 m/s 37.8 mm
03:00 1.9° 1006.6 hPa 3.5 m/s 38.0 mm 1.8° 1007.2 hPa 3.4 m/s 2.9° 999.7 hPa 5.0 m/s 38.0 mm
06:00 1.3° 1008.7 hPa 3.2 m/s 38.1 mm 1.2° 1009.5 hPa 3.1 m/s 2.5° 1000.2 hPa 4.4 m/s 38.1 mm
09:00 4.4° 1009.4 hPa 4.1 m/s 38.3 mm 4.3° 1010.1 hPa 4.0 m/s 5.1° 1001.4 hPa 5.2 m/s 38.3 mm
12:00 7.4° 1010.1 hPa 5.0 m/s 38.5 mm 7.4° 1010.8 hPa 4.8 m/s 7.2° 1002.4 hPa 7.6 m/s 38.5 mm
15:00 6.8° 1007.7 hPa 5.4 m/s 38.7 mm 6.8° 1008.1 hPa 5.1 m/s 7.1° 1003.1 hPa 8.2 m/s 38.7 mm
18:00 6.1° 1005.4 hPa 5.4 m/s 38.9 mm 6.2° 1005.5 hPa 5.4 m/s 4.6° 1004.8 hPa 5.6 m/s 38.9 mm
21:00 5.7° 1001.6 hPa 5.0 m/s 38.9 mm 5.9° 1001.0 hPa 5.1 m/s 3.6° 1007.6 hPa 4.0 m/s 38.9 mm
 06:50     17:59    Daglengte: 11:09 Woensdag 04 Maa
00:00 5.3° 997.6 hPa 4.5 m/s 38.9 mm 5.6° 996.6 hPa 4.7 m/s 2.6° 1008.9 hPa 2.7 m/s 38.9 mm
03:00 6.5° 995.1 hPa 6.8 m/s 38.9 mm 6.9° 993.8 hPa 7.3 m/s 2.0° 1008.8 hPa 0.6 m/s 38.9 mm
06:00 7.7° 992.4 hPa 9.4 m/s 38.9 mm 8.2° 991.0 hPa 10.0 m/s 2.7° 1007.8 hPa 2.7 m/s 38.9 mm
09:00 7.7° 994.2 hPa 10.4 m/s 38.9 mm 8.0° 993.1 hPa 10.9 m/s 4.8° 1005.8 hPa 4.7 m/s 38.9 mm
12:00 7.7° 995.7 hPa 11.6 m/s 40.2 mm 7.8° 995.2 hPa 11.9 m/s 6.3° 1000.9 hPa 8.3 m/s 40.2 mm
15:00 7.3° 996.8 hPa 9.9 m/s 45.1 mm 7.4° 997.0 hPa 9.7 m/s 5.7° 994.0 hPa 11.8 m/s 45.1 mm
18:00 7.1° 998.0 hPa 7.2 m/s 48.5 mm 7.0° 998.9 hPa 7.5 m/s 7.7° 988.4 hPa 3.7 m/s 48.5 mm
21:00 5.6° 1000.6 hPa 6.8 m/s 49.8 mm 5.5° 1002.0 hPa 6.9 m/s 7.7° 985.2 hPa 5.7 m/s 49.8 mm
 06:48     18:01    Daglengte: 11:13 Donderdag 05 Maa
00:00 4.2° 1003.3 hPa 6.2 m/s 52.4 mm 3.9° 1005.1 hPa 6.3 m/s 7.4° 983.0 hPa 5.0 m/s 52.4 mm
03:00 4.2° 1004.0 hPa 5.9 m/s 52.9 mm 3.8° 1006.0 hPa 6.0 m/s 7.6° 981.8 hPa 4.9 m/s 52.9 mm
06:00 4.0° 1005.0 hPa 5.3 m/s 53.4 mm 3.8° 1007.0 hPa 5.7 m/s 6.4° 982.4 hPa 1.3 m/s 53.4 mm
09:00 5.9° 1006.4 hPa 6.5 m/s 54.6 mm 5.8° 1008.2 hPa 6.6 m/s 7.3° 986.4 hPa 5.1 m/s 54.6 mm
12:00 7.8° 1007.9 hPa 7.6 m/s 54.7 mm 7.8° 1009.4 hPa 7.5 m/s 7.9° 991.7 hPa 9.0 m/s 54.7 mm
15:00 7.1° 1008.6 hPa 6.6 m/s 54.8 mm 7.1° 1009.7 hPa 6.3 m/s 7.1° 996.1 hPa 9.6 m/s 54.8 mm
18:00 6.3° 1009.1 hPa 5.4 m/s 54.8 mm 6.4° 1010.0 hPa 5.2 m/s 4.7° 998.6 hPa 7.3 m/s 54.8 mm
21:00 6.1° 1008.6 hPa 5.4 m/s 54.8 mm 6.3° 1009.5 hPa 5.7 m/s 3.5° 998.3 hPa 2.3 m/s 54.8 mm
 06:45     18:03    Daglengte: 11:18 Vrijdag 06 Maa
00:00 6.1° 1008.0 hPa 6.0 m/s 55.4 mm 6.3° 1009.1 hPa 6.1 m/s 3.6° 996.3 hPa 5.2 m/s 55.4 mm
03:00 6.3° 1006.2 hPa 6.8 m/s 55.6 mm 6.5° 1007.2 hPa 6.7 m/s 4.6° 995.1 hPa 8.6 m/s 55.6 mm
06:00 6.4° 1004.5 hPa 6.8 m/s 55.7 mm 6.7° 1005.4 hPa 7.2 m/s 3.1° 994.6 hPa 1.9 m/s 55.7 mm
12:00 8.9° 1003.6 hPa 7.9 m/s 57.2 mm 9.0° 1004.4 hPa 8.2 m/s 8.1° 995.1 hPa 4.6 m/s 57.2 mm
18:00 8.0° 1002.1 hPa 8.3 m/s 58.6 mm 8.3° 1002.5 hPa 8.5 m/s 4.4° 997.8 hPa 6.6 m/s 58.6 mm
 06:43     18:04    Daglengte: 11:21 Zaterdag 07 Maa
00:00 3.8° 1005.8 hPa 4.1 m/s 58.6 mm 3.8° 1005.9 hPa 3.8 m/s 3.3° 1005.0 hPa 7.0 m/s 58.6 mm
06:00 3.0° 1009.1 hPa 3.0 m/s 58.6 mm 3.1° 1008.9 hPa 2.8 m/s 2.1° 1011.5 hPa 5.6 m/s 58.6 mm
12:00 8.0° 1013.8 hPa 4.7 m/s 58.6 mm 8.0° 1013.4 hPa 4.7 m/s 7.6° 1018.4 hPa 5.3 m/s 58.6 mm
18:00 5.7° 1018.5 hPa 2.6 m/s 58.6 mm 5.7° 1018.1 hPa 2.6 m/s 6.1° 1022.9 hPa 2.2 m/s 58.6 mm
 06:41     18:06    Daglengte: 11:25 Zondag 08 Maa
00:00 2.5° 1023.4 hPa 3.0 m/s 58.6 mm 2.4° 1023.0 hPa 3.1 m/s 3.7° 1028.3 hPa 1.6 m/s 58.6 mm
06:00 2.1° 1025.9 hPa 3.0 m/s 58.6 mm 2.0° 1025.5 hPa 3.1 m/s 2.9° 1029.8 hPa 1.9 m/s 58.6 mm
12:00 9.4° 1030.8 hPa 5.1 m/s 58.6 mm 9.4° 1030.8 hPa 5.1 m/s 58.6 mm
18:00 7.3° 1029.9 hPa 3.7 m/s 58.6 mm 7.3° 1029.9 hPa 3.7 m/s 58.6 mm
 06:39     18:08    Daglengte: 11:29 Maandag 09 Maa
00:00 5.2° 1017.4 hPa 3.7 m/s 0.4 mm
06:00 4.7° 1018.1 hPa 3.7 m/s 0.5 mm
12:00 9.6° 1019.8 hPa 4.5 m/s 0.2 mm
18:00 7.5° 1019.7 hPa 3.4 m/s 0.6 mm
 06:37     18:10    Daglengte: 11:33 Dinsdag 10 Maa
00:00 5.2° 1020.6 hPa 3.0 m/s 0.5 mm
06:00 4.6° 1019.8 hPa 2.8 m/s 0.6 mm
12:00 9.6° 1020.6 hPa 3.5 m/s 0.7 mm
18:00 7.6° 1020.0 hPa 2.6 m/s 0.7 mm
 06:34     18:11    Daglengte: 11:37 Woensdag 11 Maa
00:00 4.3° 1020.9 hPa 1.8 m/s 0.6 mm
06:00 3.1° 1020.7 hPa 1.4 m/s 0.3 mm
12:00 9.3° 1020.9 hPa 2.6 m/s 0.1 mm
18:00 7.3° 1019.7 hPa 2.0 m/s 0.4 mm
 06:32     18:13    Daglengte: 11:41 Donderdag 12 Maa
00:00 4.0° 1020.9 hPa 1.1 m/s 0.1 mm
06:00 3.1° 1020.4 hPa 1.0 m/s 0.5 mm
12:00 9.0° 1021.7 hPa 1.1 m/s 0.3 mm
18:00 7.1° 1021.0 hPa 1.1 m/s 0.4 mm
 06:30     18:15    Daglengte: 11:45 Vrijdag 13 Maa
00:00 3.9° 1022.3 hPa 0.9 m/s 0.2 mm
06:00 3.9° 1021.1 hPa 1.4 m/s 0.8 mm
12:00 9.4° 1022.0 hPa 1.5 m/s 0.2 mm
18:00 7.6° 1020.4 hPa 1.2 m/s 0.5 mm
 06:27     18:16    Daglengte: 11:49 Zaterdag 14 Maa
00:00 4.2° 1020.7 hPa 0.9 m/s 0.2 mm
FMI Hirlam - 7.5 km EWN WRFDA - 12 km DWD ICON - 7 km GFS - 25 km Basiskaart






























































Updatetijd (Europe/Amsterdam) Resolutie Lengte Stap
FMI Hirlam 06:15, 12:15, 18:15, 00:15 7.5 km 49h 1h
EWN WRFDA 02:15, 08:15, 14:15, 20:15 12 km 73h 1h
DWD ICON 04:45, 10:45, 16:45, 22:45 7 km 75h 1h
GFS 00:45, 06:45, 12:45, 18:45 25 km 237h 3h
30+ mm
25-30 mm
20-25 mm
15-20 mm
10-15 mm
6-10 mm
4-6 mm
2-4 mm
1-2 mm
0.5-1 mm
0.2-0.5 mm
0.1-0.2 mm
30+ mm
25-30 mm
20-25 mm
15-20 mm
10-15 mm
6-10 mm
4-6 mm
2-4 mm
1-2 mm
0.5-1 mm
0.2-0.5 mm
0.1-0.2 mm
Sneeuwval
Natte sneeuw
Hagel
Vorst
30+ mm
25-30 mm
20-25 mm
15-20 mm
10-15 mm
6-10 mm
4-6 mm
2-4 mm
1-2 mm
0.5-1 mm
0.2-0.5 mm
0.1-0.2 mm
Sneeuwval
Natte sneeuw
Hagel
Vorst
Onweer
50 mm
40 mm
30 mm
26 mm
22 mm
18 mm
14 mm
10 mm
9 mm
8 mm
7 mm
6 mm
5 mm
4.5 mm
4 mm
3.5 mm
3 mm
2.5 mm
2 mm
1.5 mm
1 mm
0.8 mm
0.6 mm
0.4 mm
0.2 mm
0.05 mm
35°
30°
25°
20°
15°
10°
-5°
-10°